Hlavní strana
METAR-TAF:

METAR-TAF

Letiště :

Danville, Illinois, Spojené státy americké

zeměpisná šířka: 40-11-58N, zeměpisná délka: 087-35-44W, výška: 212 m

Aktuální stav počasí

Zpráva byla vytvořena před 23 minutami, v 09:55 UTC
Severozápadní vítr 4 kt
Teplota 0°C
Vlhkost vzduchu 93%
Tlak 1026 hPa
Viditelnost: 11.3 km
Zataženo ve výšce 3700 ft
neznámé

METAR: KDNV 250955Z AUTO 31004KT 7SM UP OVC037 00/M01 A3031 RMK AO2 T10021008

Čas: 04:18 (10:18 UTC)


TAF: chybějící

Stav a předpovědi počasí z více než 4 000 letišť (zprávy METAR a TAF).

Červené a žluté tečky na mapě představují dostupné meteorologické stanice.

Když kurzor umístíte na tečku, zobrazí se název stanice.

Pak kliknutím zobrazíte stav a předpověď počasí.

Chcete-li změnit mapu, kliknutím na zelené tlačítko se znaménkem +mapu přiblížíte, kliknutím na zelené tlačítko se znaménkem – mapu oddálíte a kliknutím na zelené šipky přejdete na sousední mapy.


METAR-TAF: